Tracking 19250 objects as of 23-Sep-2018
HD Live streaming from Space Station
objects crossing your sky now

FENGYUN 1C DEB

Track FENGYUN 1C DEB now!
10-day predictions


NORAD ID: 31524
Int'l Code: 1999-025BXP
Perigee: 679.9 km
Apogee: 1,100.0 km
Inclination: 99.2 °
Period: 102.6 minutes
Semi major axis: 7260 km
RCS: 0.0099 m2 (small)
Launch date: May 10, 1999
Source: People's Republic of China (PRC)
Launch site: Taiyaun Space Center, China (TSC)

Note: This is SATELLITE DEBRIS
aabbcc
Your satellite tracking list
Your tracking list is empty




NASA's NSSDC Master Catalog

Two Line Element Set (TLE):
1 31524U 99025BXP 18259.18349747 -.00000124 +00000-0 -32579-4 0  9997
2 31524 099.2478 023.3505 0289293 215.5238 268.1480 14.03175560260338
Source of the keplerian elements: AFSPC